User: anonymous   Login
Location: Darlington Observatory
(36.4817°N, 105.8156°W)
Time: 15:35:32
(UTC-07:00)
Language:

NOSS 3-3 (A) - Orbit

View from above orbital plane
View from above orbital plane
View from above satellite
View from above satellite

Ground track
Ground track

The orbit data is extracted from the following two-line orbital elements,

1 28537U 05004A   15062.11798208 0.00000000  00000-0  00000-0 0    07
2 28537  63.4287 161.0371 0190000 359.3562   0.6438 13.40675038    07
Epoch (UTC): 03 March 2015 02:49:53
Eccentricity: 0.0190000
inclination: 63.4287°
perigee height: 964 km
apogee height: 1249 km
right ascension of ascending node: 161.0371°
argument of perigee: 359.3562°
revolutions per day: 13.40675038
mean anomaly at epoch: 0.6438°
orbit number at epoch: 0

The dashed part of the orbit path shows where the satellite is in the earth's shadow,  

DLR